Location: Bidart
(43.4376°N, 1.5913°W)
Time: 12:37:23
(UTC+00:00)

ISS - Pass Details

Date: 21 January 2026
Orbit: 413 x 429 km, 51.6° (Epoch: 11 February)

Event Time Altitude Azimuth Distance (km) Brightness Sun altitude
Rises 17:34:00 0° 282° (WNW) 2,358 1.1 -5.9°
Reaches altitude 10° 17:36:25 10° 299° (WNW) 1,498 -0.3 -6.3°
Maximum altitude 17:39:05 21° 352° (N) 994 -2.0 -6.8°
Drops below altitude 10° 17:41:46 10° 44° (NE) 1,508 -1.5 -7.2°
Enters shadow 17:42:11 - 48° (NE) 1,644 -1.3 -7.3°
